Theta_e
347 351 354 358 358 359 359 359 358 358 357 357 357 356 356 356 356 356 356 356 355 355 355 354 355 355 355 353 352 353 353 353 354 354 354 354 353 352 351 351 352 351 350 350 349 349 349 349 348 347 348 348 347 347 347 347 346 346 346 345 345 345 345 344 344 344 344 344 344 344 344 344 345 345 344 343 342 342 341 343 341 339 338 340 341
348 352 354 356 358 358 359 358 358 357 357 357 357 356 356 356 355 355 355 355 355 355 355 355 354 354 354 353 352 352 353 353 354 354 354 353 353 352 352 351 351 350 350 350 350 350 350 349 348 347 348 347 347 347 346 346 345 344 344 345 346 345 344 343 344 344 343 342 344 344 344 344 344 344 343 342 342 341 341 341 341 337 337 342 342
351 352 353 356 358 358 358 358 357 357 357 357 356 356 356 355 355 355 355 355 355 355 355 355 354 354 355 355 353 352 353 354 353 354 353 352 351 350 350 350 350 349 350 349 348 347 348 348 349 348 349 348 347 347 347 346 345 345 345 345 346 344 344 344 343 343 343 344 343 342 343 343 342 342 341 341 342 341 340 340 340 340 336 340 340
349 351 353 356 358 357 357 357 357 357 357 356 356 356 356 355 355 355 354 355 354 355 355 354 354 354 354 354 354 355 355 354 354 353 353 352 351 350 349 349 350 351 350 349 348 348 347 347 347 347 348 347 348 347 347 346 346 345 345 345 345 345 344 343 343 344 343 343 342 340 340 335 339 341 342 341 340 340 341 341 341 341 340 340 340
349 351 353 354 356 357 356 357 356 356 356 356 356 356 355 355 354 354 354 354 354 354 355 354 354 354 354 354 354 355 355 354 354 354 353 353 352 351 351 352 351 351 350 349 349 348 347 346 347 348 348 348 347 346 346 347 346 346 345 345 345 345 344 344 343 343 342 341 341 339 333 333 334 340 341 341 341 339 340 340 340 340 340 340 339
350 352 352 353 354 355 356 356 356 356 356 356 355 355 354 355 354 354 354 354 354 354 354 354 354 354 354 354 354 354 354 354 354 354 353 353 352 351 351 351 351 350 349 349 348 347 346 349 350 349 350 349 347 347 346 346 346 346 346 345 345 344 344 343 343 342 341 341 340 334 333 333 334 336 341 341 341 341 340 340 339 339 338 339 339
350 351 352 353 353 355 355 355 355 356 355 355 355 355 355 354 353 353 354 354 354 354 354 354 354 354 353 353 353 353 353 353 354 353 353 353 352 352 351 350 349 348 348 348 347 348 350 349 349 349 349 349 349 348 347 347 346 346 345 345 345 344 344 344 344 346 343 339 331 331 332 334 334 334 340 340 338 338 340 339 339 339 338 338 338
350 351 352 353 353 354 355 355 355 355 355 355 355 355 354 354 354 354 354 354 354 354 354 354 353 353 353 353 352 353 352 352 353 353 352 352 352 352 350 349 349 347 347 346 346 346 348 349 349 348 348 346 346 348 346 346 346 345 345 345 344 344 344 343 344 344 343 339 332 331 333 333 333 334 340 340 341 341 341 340 339 339 339 338 338
349 351 352 352 353 355 355 354 354 355 355 354 354 354 354 354 354 353 353 354 354 354 353 353 353 353 352 352 352 352 352 352 352 352 352 352 351 351 351 350 350 350 349 349 349 350 349 348 348 348 347 346 345 346 346 346 345 345 344 344 344 345 344 344 344 344 344 341 334 333 332 331 331 332 341 341 341 341 340 339 340 339 339 338 338
349 350 351 351 353 355 354 354 354 354 354 354 354 353 353 353 353 353 353 353 353 353 353 352 352 352 351 351 351 351 351 352 351 351 350 351 351 351 351 351 348 347 347 347 348 349 348 348 347 347 347 346 345 345 345 344 344 344 344 344 344 343 343 343 343 341 342 340 334 332 333 338 334 334 338 341 340 338 337 336 339 337 337 337 338
348 350 351 352 353 354 353 353 354 354 354 353 353 353 353 353 353 353 353 353 353 352 352 351 351 350 350 351 351 351 351 352 351 351 351 350 350 350 349 349 348 349 349 349 349 348 348 347 347 346 346 346 345 345 344 344 344 344 344 344 343 343 342 342 341 334 338 336 332 332 340 341 333 333 342 341 339 338 339 339 339 338 338 338 338
348 350 351 352 354 353 353 353 353 353 353 353 353 353 353 353 352 352 352 352 352 352 351 351 351 351 351 351 351 351 351 351 351 351 351 350 349 349 348 349 349 349 350 350 349 349 348 347 347 346 345 345 345 344 344 343 343 343 343 343 343 342 342 342 336 333 334 333 334 335 335 333 332 337 340 339 339 338 338 338 338 339 339 338 337
347 349 349 350 351 352 352 352 353 353 352 353 353 353 353 352 352 352 352 352 352 351 351 351 351 351 350 351 351 351 351 351 351 350 350 349 349 349 348 348 349 349 349 350 349 348 347 347 346 345 345 345 344 344 344 343 343 343 343 342 342 342 342 340 334 334 334 333 334 331 329 330 333 339 339 338 338 338 338 336 337 337 337 337 338
345 346 348 349 350 354 351 352 352 352 352 352 352 352 352 352 352 352 351 352 351 351 351 351 351 351 351 351 350 350 350 350 350 350 350 349 349 348 348 348 348 348 349 348 348 348 347 346 345 345 344 344 344 343 342 342 342 342 342 342 342 341 342 339 339 333 332 331 331 330 330 333 333 341 338 338 338 337 337 338 337 336 336 336 337
344 346 347 346 348 350 353 352 351 351 351 351 351 351 351 351 352 351 351 351 351 351 351 351 351 350 350 350 350 350 349 349 350 349 349 349 348 348 347 347 347 348 348 347 347 347 346 345 344 343 343 343 343 342 341 342 342 342 343 343 343 344 344 337 335 332 332 332 332 334 331 332 341 340 339 338 338 337 337 337 337 337 337 336 336
341 343 344 346 349 350 350 353 351 351 351 351 351 351 351 351 351 351 351 351 351 351 351 351 350 350 350 350 350 349 349 349 349 349 348 348 348 348 347 347 347 347 347 347 346 346 346 344 343 342 342 342 342 341 341 342 342 343 343 343 343 344 345 342 333 331 331 332 332 333 332 335 341 340 338 338 337 336 336 337 337 336 336 336 336
340 344 344 347 348 348 349 349 351 352 351 351 351 351 350 351 351 351 351 351 351 351 351 351 350 350 350 350 349 349 349 349 349 349 348 348 348 347 347 346 346 346 346 345 345 345 344 344 343 342 342 342 342 343 342 342 344 343 343 343 344 345 345 344 337 330 330 333 334 333 332 333 339 340 338 338 337 336 336 335 337 338 336 336 337
341 344 345 347 347 348 348 349 349 349 349 350 351 351 350 350 351 351 351 350 351 351 350 350 350 350 350 349 349 349 349 349 348 349 348 348 348 348 347 346 345 346 345 345 345 345 344 343 343 342 341 342 342 343 343 343 343 343 343 343 344 344 343 342 335 331 332 337 333 334 333 339 341 338 338 338 337 336 336 336 335 335 335 335 335
342 345 345 346 346 347 347 347 348 348 348 348 348 350 351 351 351 351 351 350 350 350 350 350 350 350 349 348 348 349 348 348 348 348 348 347 348 348 347 347 346 345 346 345 345 345 344 343 343 341 341 340 341 342 342 343 343 343 344 343 344 342 342 338 333 332 335 334 332 332 333 341 340 339 338 338 337 336 336 335 335 334 334 335 335
342 343 343 345 346 345 345 345 346 347 347 347 348 348 350 351 351 351 351 350 350 350 350 349 349 349 349 348 348 347 347 346 348 347 348 347 346 345 347 346 346 345 345 345 345 345 344 343 343 341 341 340 340 341 341 342 342 343 344 343 344 340 333 333 334 334 332 332 333 332 339 341 339 338 338 338 336 336 335 335 334 334 334 336 335
339 340 341 343 344 343 343 343 344 345 346 346 346 347 349 350 350 350 350 350 349 350 349 350 349 348 347 347 345 341 340 341 342 342 347 343 345 346 347 346 345 345 345 344 345 345 345 344 342 341 341 340 340 339 340 340 341 342 343 343 341 332 331 333 332 334 333 333 335 333 340 340 339 339 339 338 337 336 335 334 334 334 334 335 336
335 337 341 342 342 342 342 342 343 343 344 345 346 347 348 348 346 347 347 347 349 349 347 345 350 343 346 343 340 342 337 335 337 346 340 343 343 346 347 345 346 345 345 345 345 345 345 344 343 341 341 340 339 328 330 335 337 339 340 340 332 330 330 333 332 332 333 331 333 336 340 340 339 339 338 337 337 336 334 334 334 334 334 334 335
336 338 339 341 341 341 342 341 342 342 343 344 345 345 344 344 344 344 345 347 349 347 343 347 339 340 340 340 339 337 336 336 337 340 340 345 342 346 346 345 346 345 344 345 345 345 344 344 343 342 341 340 334 328 325 325 325 334 335 329 328 329 330 332 332 332 332 332 331 340 340 341 339 339 338 337 336 335 334 334 334 334 333 333 334
337 338 339 341 341 341 341 341 342 342 342 342 343 343 344 343 343 342 342 342 342 341 337 337 337 338 338 337 336 337 335 332 345 346 345 339 339 344 344 343 345 345 344 343 343 344 344 344 343 342 340 339 329 327 325 323 324 325 325 325 326 328 330 331 331 331 331 336 333 341 341 341 340 339 338 337 336 335 335 335 334 334 333 333 334
338 339 340 340 340 341 341 341 342 342 342 342 342 341 342 341 341 340 340 338 336 334 334 333 334 335 337 336 336 336 334 333 331 334 335 334 334 336 338 337 337 337 343 335 336 339 338 338 335 337 330 330 329 326 325 324 325 326 326 325 327 328 330 331 330 330 332 334 334 341 341 341 339 338 337 336 336 335 335 335 334 333 332 332 332
337 338 339 340 341 342 342 342 342 342 341 341 340 342 341 339 339 338 337 336 334 332 331 331 331 332 335 337 337 334 334 333 331 331 331 331 333 335 335 335 334 336 338 336 335 336 334 336 335 334 331 329 328 327 325 327 325 325 325 325 326 328 329 329 330 331 332 332 336 341 341 341 339 338 337 337 335 335 335 334 334 333 332 332 331
335 336 337 339 341 342 342 343 342 342 342 341 341 341 338 338 338 338 336 333 331 331 330 330 329 330 332 337 334 334 335 333 332 330 331 332 333 334 335 334 335 336 337 335 336 336 335 334 334 334 332 328 328 327 326 325 325 326 326 326 326 329 329 329 331 332 332 333 337 341 340 340 340 338 337 336 336 335 335 334 334 333 332 331 331
333 334 335 339 340 342 343 343 342 342 341 342 341 339 338 338 339 343 337 339 334 331 329 329 329 330 332 335 337 334 334 332 331 331 330 331 332 334 333 332 333 336 337 334 335 334 335 333 332 332 331 330 328 327 326 326 326 325 327 326 327 328 329 330 331 332 332 333 335 340 340 340 339 339 337 336 336 335 334 335 334 333 332 332 331
331 332 335 338 340 342 343 342 342 342 341 342 340 339 338 338 339 337 335 342 332 331 330 330 329 331 332 334 338 333 332 332 331 331 329 331 332 332 332 333 334 335 335 333 334 334 335 334 332 332 330 329 327 327 326 326 325 326 326 326 325 328 329 330 330 332 332 333 333 337 340 339 338 339 337 336 336 335 335 334 334 333 333 332 331
328 333 335 337 340 343 342 342 342 341 341 341 339 338 338 338 337 336 335 339 330 331 332 330 329 330 330 333 336 334 333 332 332 331 330 330 331 331 332 332 333 333 333 331 330 331 331 332 330 330 330 329 328 328 328 327 327 326 325 325 324 328 329 329 330 332 333 333 333 335 340 338 337 338 338 337 336 337 336 335 334 334 333 333 332
326 326 328 333 340 342 341 342 341 343 341 340 338 338 339 337 336 335 335 332 332 334 332 331 330 329 329 331 335 336 333 332 332 331 330 331 330 330 330 331 331 330 330 331 332 330 330 330 330 328 327 327 327 328 328 327 326 326 326 325 325 327 329 329 330 331 333 333 333 333 336 339 338 336 337 337 338 337 336 336 335 333 334 333 333
327 327 327 327 335 340 340 341 340 341 340 339 340 338 337 337 337 335 333 332 334 331 330 331 335 330 331 330 333 335 335 332 332 331 330 329 329 329 330 329 328 330 331 332 331 330 329 330 331 330 328 327 327 327 326 325 325 326 326 325 325 326 329 329 329 331 332 333 333 334 334 336 339 337 337 336 337 339 336 337 336 335 334 334 333
326 327 328 326 333 336 338 339 339 339 338 338 338 337 336 338 335 334 333 335 334 331 330 331 331 332 333 333 333 334 333 330 330 332 332 327 328 327 326 327 328 330 328 329 330 329 330 330 328 330 329 327 325 325 326 324 324 324 323 325 323 323 327 327 327 329 331 332 333 334 333 335 335 337 335 337 336 338 338 337 337 336 334 333 333
326 328 327 327 331 332 336 336 335 335 335 335 336 335 335 334 334 332 335 332 331 330 332 329 331 330 331 331 333 334 331 329 329 329 330 328 327 326 326 326 328 328 329 328 329 330 328 329 329 328 331 328 325 324 321 321 322 324 326 327 328 327 327 325 326 328 329 329 332 333 333 333 334 334 334 338 338 337 336 338 337 337 335 335 333
328 326 325 327 328 329 331 331 331 330 332 333 335 333 333 333 331 330 330 327 327 326 327 327 328 330 331 331 332 333 331 329 330 331 332 330 328 326 328 328 328 327 326 326 326 329 328 327 328 328 325 323 323 325 323 323 325 326 326 326 327 327 328 327 327 328 330 330 330 331 331 332 332 333 334 333 337 337 336 337 338 337 336 336 336
326 326 325 325 326 328 331 329 328 327 328 332 332 332 332 330 330 334 327 326 327 327 326 327 329 331 332 331 331 333 331 330 329 329 329 329 327 326 328 330 329 328 327 326 327 328 328 328 329 326 323 325 326 326 326 326 327 327 326 326 326 327 326 327 328 328 328 330 329 330 332 331 332 333 336 333 333 335 336 336 337 338 338 336 336
326 326 324 327 328 329 329 326 326 327 328 330 330 330 330 329 329 328 327 327 326 326 326 328 329 332 330 329 331 333 330 329 328 328 326 327 327 327 328 328 328 328 326 325 325 326 329 330 327 329 325 324 327 327 326 327 327 327 327 327 327 327 327 328 327 327 328 328 328 329 330 331 333 337 333 331 332 333 336 336 337 336 336 337 337
327 326 327 328 328 327 326 326 326 327 327 328 327 326 326 327 326 326 330 327 327 327 328 330 329 329 329 329 330 332 330 329 330 328 327 327 328 327 327 327 327 327 326 325 324 327 329 327 326 327 326 326 324 324 323 324 329 327 325 326 326 326 327 328 329 330 327 326 327 329 329 330 332 333 333 332 332 332 332 335 337 335 336 334 336
328 328 328 329 329 329 328 327 325 325 324 323 322 320 318 319 320 325 325 325 324 323 325 325 324 327 327 328 329 329 330 328 328 328 325 327 326 325 325 325 326 325 327 326 326 327 327 326 326 324 325 325 324 324 324 324 326 326 326 326 326 327 325 324 326 327 327 327 327 330 330 329 330 331 332 332 331 331 330 329 332 332 333 335 335
328 328 329 329 329 328 326 325 325 324 321 319 317 315 316 319 318 320 321 321 321 322 320 321 322 325 329 329 328 326 329 328 327 326 325 325 323 323 323 326 326 325 326 326 326 326 324 323 321 324 324 325 326 325 324 324 323 324 324 325 327 327 327 325 325 325 328 327 327 327 328 329 329 330 331 331 331 331 331 330 331 332 333 334 335
328 328 329 329 329 328 326 324 325 322 318 316 314 313 315 316 316 318 317 317 319 319 320 319 320 321 322 325 325 324 326 328 328 326 324 328 323 323 324 327 328 325 326 327 327 326 323 323 324 323 322 321 323 326 325 323 321 319 318 321 324 326 327 324 325 326 327 330 329 329 329 328 328 329 330 330 330 331 330 331 330 331 331 332 332
326 327 328 328 328 327 325 326 324 320 318 315 315 314 315 316 316 316 317 317 317 316 315 316 317 321 320 321 321 317 318 322 326 326 326 324 322 323 324 326 327 324 325 325 324 326 325 325 323 322 323 321 322 326 325 321 317 315 316 316 318 323 325 323 321 325 327 329 326 327 327 327 329 329 329 329 330 331 331 330 329 330 331 331 331
325 326 328 328 328 327 326 326 324 320 318 318 317 316 316 316 317 315 318 315 316 316 315 318 320 319 319 319 318 317 317 317 318 321 325 325 322 321 322 322 325 327 325 325 323 321 322 324 323 321 319 320 321 324 321 320 315 317 316 316 312 315 316 320 322 326 328 329 328 329 330 328 329 330 329 328 327 330 331 330 329 329 330 330 331
325 325 326 327 328 327 327 326 324 322 320 322 321 319 320 317 318 318 317 316 315 319 316 316 317 318 318 319 319 317 317 317 318 318 318 319 320 320 321 323 324 324 322 320 320 321 321 321 322 321 320 318 319 319 323 321 318 317 313 313 313 311 309 314 315 319 324 327 330 331 333 331 330 330 329 329 328 327 328 330 329 329 329 330 330
324 325 326 327 328 327 327 326 325 322 320 322 320 320 319 317 317 317 317 315 315 314 314 314 316 318 316 316 316 316 317 317 317 318 319 315 316 318 320 321 322 323 323 321 319 320 319 318 320 319 318 319 320 322 324 323 321 323 316 313 310 309 309 311 313 315 321 322 326 329 331 332 330 328 328 330 331 329 328 328 328 328 329 329 329
324 325 326 327 328 327 327 325 323 321 320 319 320 319 318 316 315 313 312 311 310 311 311 313 312 314 314 316 316 316 316 316 317 316 316 315 312 314 315 316 318 321 323 321 321 321 320 319 318 318 319 318 319 321 322 324 321 322 322 317 314 310 311 315 313 310 317 321 321 325 328 330 329 330 328 330 330 330 329 329 327 327 327 328 329
325 326 327 326 328 327 326 325 323 320 319 318 318 318 316 315 314 313 312 312 311 310 311 312 313 314 314 313 314 314 315 316 315 313 312 313 312 315 316 316 318 318 320 318 317 317 322 323 321 320 319 319 319 316 320 321 320 321 321 320 322 324 318 314 310 312 309 314 317 322 325 328 329 330 330 330 331 330 329 330 330 330 329 329 328
326 327 327 327 327 327 326 324 322 320 319 318 317 317 315 313 313 312 313 312 312 313 314 313 313 314 314 314 314 314 315 315 314 313 313 314 312 311 312 314 315 316 317 314 315 316 319 321 321 319 319 320 320 319 319 320 317 315 320 320 321 323 321 320 315 312 307 307 312 316 319 324 325 326 328 328 329 331 330 331 332 332 331 329 328
327 327 327 328 328 327 326 323 321 320 319 318 317 316 316 314 314 314 314 314 314 315 315 316 315 315 313 312 313 313 312 311 312 312 311 313 315 311 310 311 312 314 317 315 315 316 315 314 314 315 315 317 319 318 317 316 316 316 318 318 319 319 318 317 318 316 312 308 310 312 312 318 319 323 325 326 328 328 329 331 333 334 332 330 330
326 328 328 328 328 327 324 322 321 319 319 318 317 316 316 315 314 315 315 314 315 314 314 314 313 313 312 310 310 310 309 309 309 310 310 311 311 312 312 311 311 314 314 312 312 313 313 313 313 313 313 312 313 315 315 313 314 314 315 315 315 317 315 311 310 311 312 311 309 308 307 307 309 310 316 322 325 326 328 329 330 333 333 331 331
322 326 326 327 327 326 324 322 321 320 319 318 317 316 315 315 316 316 315 314 314 313 313 313 313 311 311 309 309 308 309 308 308 308 309 311 312 314 312 312 313 315 313 312 312 313 312 312 312 312 311 310 310 310 311 310 310 310 310 311 312 312 311 308 307 309 308 306 305 304 305 306 305 305 308 310 317 322 326 327 329 330 331 331 331
Wind_Speed
3 8 6 9 11 14 16 17 17 17 18 18 17 17 18 18 17 17 17 16 17 16 16 16 16 16 17 17 17 16 17 18 17 17 17 18 19 17 17 16 16 17 17 17 17 16 16 17 17 16 16 16 16 16 16 16 15 15 15 15 15 16 15 16 16 16 15 17 16 15 15 15 15 16 16 16 15 14 14 13 12 8 7 10 14
8 5 5 6 11 14 16 16 17 18 19 19 18 17 17 18 17 17 17 17 16 16 16 15 15 15 16 16 16 16 15 16 17 16 16 17 17 17 16 15 15 16 18 17 17 16 16 16 16 16 15 15 15 15 15 14 15 15 14 15 16 15 15 15 15 15 15 15 15 16 15 15 15 15 16 15 14 14 13 13 14 6 4 13 14
9 7 4 7 12 14 15 16 17 18 18 18 19 18 18 17 17 17 16 15 15 15 15 15 15 15 15 15 15 15 15 14 15 14 14 15 16 16 16 15 15 16 17 16 15 15 15 16 15 15 15 15 14 14 14 14 14 15 14 15 14 14 14 14 14 13 15 15 14 14 15 15 14 15 16 15 15 14 14 13 13 11 8 14 12
12 6 5 10 14 13 15 16 16 18 18 18 18 18 17 17 17 17 16 15 14 14 15 15 15 14 14 15 15 15 15 15 15 15 13 14 15 16 15 16 16 14 17 16 16 15 15 14 14 14 15 14 13 13 13 13 14 13 13 13 14 13 13 13 13 14 14 14 12 9 4 5 9 15 15 14 14 14 14 13 13 13 14 12 14
11 8 6 6 8 12 15 16 17 17 18 18 18 18 18 17 18 16 16 14 14 14 14 15 15 15 14 14 15 15 15 14 14 15 14 14 15 16 16 15 15 15 15 16 14 14 14 14 13 13 14 14 12 11 13 13 13 12 12 12 13 13 13 13 14 14 13 12 11 6 4 5 5 12 14 15 14 13 13 13 13 13 12 13 13
10 8 6 6 7 10 15 16 17 19 18 18 18 19 18 17 18 17 16 14 13 13 14 15 15 15 15 14 14 14 14 14 14 14 14 13 13 14 15 15 15 14 14 15 14 13 14 14 13 13 14 13 11 11 12 12 12 12 11 11 11 11 12 13 15 16 13 11 8 3 3 3 3 5 14 14 13 12 13 13 13 11 12 13 13
11 8 7 6 6 10 14 16 17 18 18 19 19 19 18 17 17 17 15 15 13 13 13 14 15 15 15 14 14 14 14 14 13 13 12 12 11 12 14 14 14 13 13 14 12 15 15 14 14 14 13 12 11 11 10 11 10 10 10 10 9 9 9 11 16 14 10 4 3 3 3 3 4 3 11 12 12 11 13 13 12 11 11 11 11
8 8 8 7 7 12 14 15 17 17 18 19 19 19 18 18 18 16 16 15 13 12 13 13 14 15 14 14 13 13 13 13 13 13 13 12 12 12 13 12 11 11 12 12 11 12 13 13 13 13 12 12 10 10 9 9 9 9 9 9 8 7 6 3 5 4 8 3 3 3 3 3 3 3 9 11 12 11 12 12 11 11 11 12 11
3 7 7 6 7 15 13 14 15 17 18 18 18 18 18 18 17 17 16 15 14 13 13 13 14 14 14 14 14 13 13 13 13 13 12 12 12 11 11 10 8 7 9 9 7 10 14 13 12 12 11 11 9 8 7 7 7 7 7 6 6 6 4 3 2 3 2 2 3 3 3 2 1 3 9 11 13 13 12 10 9 11 12 11 10
3 5 5 5 7 11 12 13 15 17 17 18 18 19 18 18 17 16 16 15 13 13 13 13 13 14 14 14 13 13 14 13 13 13 13 12 11 10 8 9 10 10 11 10 11 14 13 13 12 11 11 10 7 7 6 5 6 5 5 5 5 5 5 3 1 0 2 3 3 3 2 4 3 4 9 11 12 12 11 10 7 7 8 10 10
9 5 4 6 9 11 12 14 16 17 17 18 18 18 18 17 16 16 16 15 14 14 13 13 14 13 13 14 14 14 13 13 13 13 13 13 12 11 12 11 10 11 12 12 13 13 12 12 12 11 11 9 6 5 5 5 4 4 4 4 5 5 4 3 1 1 6 5 4 3 4 7 1 3 12 12 12 11 11 10 10 10 10 10 10
12 7 4 5 12 12 13 14 16 17 18 18 18 18 17 16 16 16 15 15 15 14 14 12 12 13 13 13 13 13 13 13 13 12 12 13 13 12 12 12 12 12 12 13 13 12 12 12 12 11 10 9 6 5 4 3 3 3 4 4 4 4 4 5 3 6 7 6 4 3 3 3 2 7 13 11 11 12 11 10 10 10 10 9 9
12 7 4 3 6 12 13 15 16 17 17 18 18 18 17 16 16 16 15 14 14 14 14 13 12 12 13 13 13 12 12 12 11 11 12 12 12 12 12 12 12 13 13 13 13 12 12 11 11 10 9 8 6 4 3 1 3 5 4 5 4 5 7 6 5 6 6 4 4 3 3 2 4 11 11 10 11 11 10 9 9 10 9 9 11
13 8 3 2 5 12 13 14 15 16 16 16 17 16 16 16 16 15 14 14 14 14 13 13 12 12 11 12 12 12 11 11 11 11 11 11 11 11 11 11 12 13 13 12 12 12 11 11 10 9 8 7 5 2 1 1 3 4 5 6 7 7 7 4 7 6 5 5 4 4 3 3 4 11 11 10 10 10 10 10 10 10 9 9 9
13 12 6 3 5 8 15 14 15 15 16 15 15 15 15 15 15 14 14 14 14 13 13 13 12 13 13 13 12 12 12 11 10 10 10 10 10 11 11 11 11 12 12 11 10 10 10 10 9 7 7 6 4 3 0 1 3 4 5 7 8 9 9 3 5 5 6 5 3 4 4 4 9 11 12 11 10 10 10 10 10 9 9 8 8
11 12 10 6 6 7 9 14 15 15 15 15 15 15 15 15 15 14 14 14 13 13 13 13 13 13 13 12 12 12 12 11 9 9 10 9 9 10 10 11 11 12 12 11 10 9 9 9 8 7 6 5 4 3 1 1 3 4 5 6 8 9 9 6 2 5 5 5 4 3 4 4 10 10 11 11 10 10 9 10 10 9 9 9 9
11 9 12 9 6 6 8 9 13 17 15 14 15 15 15 14 14 14 13 13 13 12 12 13 13 13 13 12 13 12 12 12 11 10 10 10 10 9 9 10 11 12 11 11 10 9 9 8 8 6 4 3 3 3 2 2 3 4 4 5 7 8 7 5 4 4 5 4 4 4 4 5 9 11 12 11 10 9 9 9 10 10 9 9 9
11 11 11 8 6 6 7 9 10 10 10 13 13 14 13 13 13 13 13 12 12 12 12 11 12 13 12 12 12 12 12 12 11 9 9 8 8 8 8 9 10 10 11 11 10 9 9 8 7 5 3 2 1 1 2 2 3 3 3 4 6 6 7 5 6 5 4 4 4 3 4 6 11 12 12 12 10 10 9 9 9 9 9 9 8
9 11 10 9 7 7 8 7 8 8 8 7 7 11 14 12 13 13 12 12 11 12 12 11 12 12 12 12 12 12 13 12 10 9 8 9 8 8 7 7 8 10 10 10 10 9 8 7 6 5 3 2 1 2 2 2 2 2 2 3 6 7 7 6 6 5 4 4 3 4 5 10 10 12 12 12 11 10 10 8 8 8 9 9 9
8 11 10 8 7 8 7 7 7 8 7 6 7 8 13 14 13 13 12 11 11 11 12 11 11 11 12 12 11 9 9 8 11 7 9 8 8 5 7 8 9 10 9 9 9 9 8 7 5 4 3 2 2 3 3 2 3 2 2 4 7 6 4 5 5 4 4 3 3 4 6 10 11 12 13 12 11 10 10 9 8 7 8 9 8
5 8 9 8 8 9 8 7 7 7 7 7 6 7 9 13 10 12 12 11 11 12 12 11 9 10 10 10 8 5 4 4 5 4 8 3 5 6 7 8 8 10 10 9 9 8 8 7 5 4 3 2 1 3 4 5 4 4 4 3 7 4 2 4 4 4 3 3 3 4 10 9 11 12 12 12 11 10 10 10 9 8 8 8 8
8 7 8 9 8 7 9 8 7 7 7 6 5 5 7 8 7 7 7 9 9 9 7 5 7 5 10 7 5 5 4 3 3 6 3 4 3 5 6 8 8 9 9 8 8 7 7 6 5 4 3 2 0 1 3 5 6 5 5 4 5 2 1 5 6 4 3 3 3 5 11 10 11 11 11 11 11 10 10 10 9 9 8 8 7
6 7 7 9 7 7 7 7 7 7 7 6 5 5 5 5 5 5 5 7 7 7 4 5 3 5 5 5 4 4 4 3 2 3 3 5 3 4 6 7 6 8 8 7 8 6 6 5 5 3 2 2 0 1 3 4 4 5 5 2 5 0 1 5 6 5 4 3 3 8 11 10 11 11 11 11 10 10 9 9 9 9 9 8 8
8 8 8 7 7 7 7 7 8 7 7 5 5 5 5 5 5 5 5 5 4 4 3 3 4 4 5 5 5 4 4 2 4 6 6 3 3 4 5 6 6 7 7 5 6 6 6 6 5 4 3 1 0 2 3 4 4 4 4 2 5 0 2 6 6 5 5 4 3 9 8 9 10 11 11 10 10 10 9 9 8 9 9 8 8
6 6 6 7 7 7 7 8 8 7 7 6 6 5 5 5 4 4 4 4 4 3 3 3 4 4 4 4 5 4 4 4 1 2 3 3 2 3 3 3 2 3 5 3 3 3 3 3 2 3 3 2 2 2 3 5 4 4 4 3 4 0 1 6 5 5 5 4 5 10 9 9 11 11 11 10 10 10 9 9 9 8 7 8 8
5 6 6 7 7 8 8 7 8 7 6 5 6 6 6 5 4 4 4 3 4 4 2 3 4 4 4 4 5 5 3 3 2 2 2 2 2 3 4 3 3 3 3 4 4 4 3 3 3 3 3 2 2 3 3 3 5 4 5 4 4 0 3 5 5 5 5 5 6 11 9 9 10 11 11 11 10 9 9 9 9 8 6 6 7
6 5 4 5 6 8 8 8 7 6 6 6 5 5 5 5 5 5 5 5 3 4 3 2 2 3 4 4 5 4 4 3 4 3 2 3 3 3 3 4 4 4 4 5 5 4 4 4 3 3 2 2 3 3 3 4 3 3 4 5 3 2 4 5 5 5 5 5 6 12 10 10 10 11 11 10 11 10 9 9 9 8 7 6 7
7 6 5 6 5 9 8 9 7 7 6 7 6 6 5 5 5 6 5 4 4 3 2 2 2 3 3 4 4 4 4 3 3 4 3 3 3 3 2 1 3 4 5 5 5 4 4 4 3 3 3 3 3 3 4 4 4 3 4 5 2 3 5 5 5 5 5 5 5 9 11 11 11 11 12 11 10 9 8 9 9 9 8 8 7
7 7 5 6 6 8 8 8 8 8 6 7 7 5 5 5 4 4 4 4 2 4 3 3 2 1 2 3 4 5 4 4 4 4 3 4 4 3 4 4 4 5 5 4 4 5 5 5 5 5 4 4 3 4 3 4 4 4 5 5 2 4 5 5 5 6 5 5 5 7 12 12 12 11 12 12 11 10 9 9 9 9 9 9 8
3 5 2 3 5 8 9 9 9 8 7 6 6 6 6 5 5 5 4 3 2 3 4 4 3 3 3 3 4 5 5 4 4 4 4 5 4 4 4 5 6 6 5 4 4 5 5 5 4 4 4 3 3 4 3 5 4 5 6 5 4 5 6 6 6 6 6 5 5 6 12 11 12 11 11 12 12 11 10 10 9 9 10 10 9
4 10 8 8 3 8 8 9 9 8 8 7 6 6 5 5 5 4 3 3 3 3 4 4 3 2 3 3 3 5 5 5 5 5 4 5 4 5 5 6 5 2 2 3 3 4 5 5 5 4 3 2 4 4 4 5 6 5 5 3 4 5 6 5 6 6 7 6 5 4 6 12 11 11 11 11 11 12 11 11 11 10 10 10 10
7 10 9 4 7 8 9 9 8 8 8 7 6 6 6 6 5 4 4 4 3 3 4 4 5 3 3 3 3 4 4 3 4 4 4 4 5 6 6 3 3 3 3 3 2 1 1 0 0 1 1 2 3 4 4 5 5 5 3 2 1 4 6 5 6 8 7 6 6 5 5 6 10 11 10 10 10 11 12 12 11 11 11 11 10
2 11 10 9 11 7 9 8 8 7 8 7 7 6 6 5 5 5 4 4 4 4 3 4 5 4 4 4 3 3 4 5 3 2 3 3 5 4 1 2 2 2 2 2 3 1 0 0 2 2 3 2 3 5 2 4 3 1 3 3 4 4 5 3 0 1 3 6 7 6 5 5 4 9 10 10 10 10 12 12 12 12 12 11 11
2 6 5 9 8 5 6 6 7 8 6 6 7 6 6 5 5 5 4 4 4 4 3 4 4 4 3 3 3 3 4 4 4 3 4 4 3 1 1 2 1 1 2 2 3 3 1 1 1 1 3 2 3 4 2 1 4 4 4 3 5 3 4 4 5 4 2 2 3 5 5 5 5 5 5 10 10 9 11 11 12 12 12 12 11
5 7 7 11 7 8 7 6 7 7 7 7 8 7 6 6 6 5 4 3 2 2 2 2 2 3 3 2 3 4 5 4 4 4 4 4 3 3 3 2 2 2 1 2 2 3 3 2 1 2 2 0 0 1 4 2 4 5 3 2 5 4 4 4 2 6 6 5 4 3 2 3 5 5 5 5 7 9 11 11 12 12 12 12 12
11 9 6 6 9 8 8 8 8 8 7 9 7 7 7 5 5 5 4 3 4 4 2 2 2 2 3 3 3 3 4 5 5 5 4 4 3 4 3 3 2 2 1 1 1 2 2 1 3 1 3 2 3 3 2 4 3 4 2 3 4 3 4 4 3 2 4 6 5 5 5 4 3 4 5 5 5 6 11 11 11 10 12 12 12
11 11 9 8 10 9 10 11 11 9 8 8 8 6 5 5 4 4 4 4 4 4 2 1 1 3 3 4 3 3 3 5 5 5 4 4 3 4 3 4 3 3 3 3 2 2 1 3 1 3 2 3 4 3 3 3 4 3 3 4 4 3 4 4 3 3 4 6 5 5 4 5 4 5 4 4 4 5 9 11 10 9 11 11 11
10 11 9 13 12 9 9 10 9 9 9 9 7 6 5 5 4 4 2 3 3 3 3 3 2 2 3 4 3 3 3 3 5 6 5 3 3 3 3 4 4 4 3 2 3 3 4 5 4 4 2 5 4 4 3 3 3 3 3 4 3 4 4 4 3 3 3 5 6 6 6 6 6 7 5 4 3 4 4 8 10 9 9 10 10
8 10 9 10 10 8 8 9 9 8 8 7 6 5 5 5 5 5 4 4 3 3 2 2 2 1 1 1 0 2 2 2 3 3 3 2 4 3 3 3 3 3 3 4 3 4 5 5 6 3 1 2 3 3 4 4 3 2 2 1 2 3 3 3 4 4 4 2 3 5 6 6 5 5 6 5 5 4 3 3 4 3 5 9 9
8 10 10 10 10 8 7 7 8 8 7 6 6 6 6 5 7 6 6 5 3 4 3 3 3 3 1 0 1 3 4 4 3 2 0 1 2 2 2 3 3 4 4 4 4 4 5 3 1 2 3 3 3 2 2 3 3 3 2 1 2 2 4 2 3 2 2 1 1 1 2 5 6 5 5 6 6 5 5 4 4 5 4 6 9
8 11 11 9 10 10 9 9 6 7 8 7 6 7 7 6 4 5 6 5 5 4 5 3 3 3 2 1 1 2 4 5 4 2 1 1 2 3 3 2 3 4 4 4 4 3 3 3 3 2 3 2 1 2 1 2 3 1 1 2 2 1 0 1 2 1 1 2 2 1 2 1 2 6 5 5 5 5 6 7 6 5 6 5 6
8 11 12 10 8 8 9 8 6 6 7 6 6 5 4 6 7 6 6 6 6 6 4 3 3 3 3 1 0 1 1 2 3 3 2 2 2 3 4 3 4 4 4 4 3 4 4 3 3 3 2 2 1 1 0 1 1 1 0 1 3 2 1 2 2 1 1 1 2 2 0 0 0 2 4 6 6 7 7 7 6 6 6 6 5
10 11 10 10 9 8 7 7 6 6 5 5 6 5 3 5 7 5 8 4 3 3 4 2 2 5 4 4 3 3 3 3 2 3 5 3 3 2 3 2 4 5 5 5 5 4 3 3 2 4 2 2 2 2 2 2 1 1 1 2 1 1 3 4 1 1 2 1 2 2 2 3 1 1 1 0 2 5 6 6 7 7 7 7 6
9 8 9 11 9 8 7 7 7 5 5 4 4 5 6 5 6 7 5 5 6 4 4 4 5 6 6 4 4 4 4 4 4 4 4 3 3 3 3 3 3 3 4 3 3 5 4 3 3 2 4 2 2 1 3 1 1 3 1 1 0 1 1 2 1 2 1 1 2 2 2 3 4 2 2 0 2 2 4 4 6 7 7 8 7
9 10 10 9 8 9 8 8 6 5 4 4 6 8 9 8 7 7 8 8 6 6 5 5 3 3 3 4 3 3 4 5 5 5 4 4 3 2 2 3 3 3 3 3 2 4 3 2 3 4 3 4 3 1 2 1 2 2 3 2 2 0 2 1 1 2 3 2 1 1 0 3 4 3 3 3 2 2 2 3 4 4 5 5 5
9 9 9 9 9 8 8 6 5 4 4 5 8 9 9 10 8 8 8 7 7 6 6 5 4 4 3 0 2 4 4 5 4 5 4 4 5 4 4 4 3 4 4 3 3 4 4 3 2 2 3 2 4 3 1 1 2 4 4 2 1 2 1 2 2 1 2 0 3 3 2 1 2 4 1 2 4 3 3 3 3 3 3 4 5
8 8 8 9 10 9 8 6 6 5 5 6 8 9 9 8 9 8 8 8 8 3 3 3 4 3 2 3 3 3 4 5 4 4 5 5 5 6 6 5 5 4 3 4 4 3 4 3 2 3 3 3 3 3 3 1 2 3 4 4 2 1 1 2 1 1 1 2 2 2 4 3 4 3 2 2 4 4 4 5 4 4 4 4 4
9 9 9 9 11 11 9 7 6 7 6 7 8 10 10 8 7 7 7 7 7 7 6 5 4 3 5 2 3 3 3 4 4 4 5 5 5 6 5 5 6 5 5 5 4 3 5 4 3 3 2 3 4 5 4 1 2 1 0 1 2 1 1 3 1 1 2 1 1 3 1 2 3 3 3 3 3 4 4 4 4 5 4 4 4
10 10 10 10 10 11 10 7 8 8 6 7 9 8 10 9 8 7 6 4 6 7 6 5 5 3 4 2 4 3 4 4 3 4 4 5 5 5 6 6 5 4 4 6 5 5 5 5 5 5 4 4 3 3 4 3 3 3 2 2 1 1 2 2 1 2 2 2 1 2 3 4 1 3 4 3 5 3 4 3 3 3 2 3 4
7 8 8 9 9 10 10 9 9 8 8 7 9 9 10 10 9 7 8 6 6 5 5 6 5 4 4 3 3 4 4 4 4 3 4 4 5 5 5 5 4 4 4 5 5 6 5 6 5 5 5 6 4 4 3 3 3 3 1 4 2 1 3 4 4 3 3 3 3 1 2 3 2 4 4 5 4 3 2 3 3 3 3 4 4
5 7 7 9 9 10 11 11 11 9 9 9 10 11 9 10 10 9 9 9 8 7 7 6 6 4 5 4 4 3 3 3 3 4 4 4 4 4 5 4 4 3 4 5 5 5 5 6 5 6 6 6 6 6 6 4 5 6 6 6 5 4 3 1 2 3 2 2 3 3 2 2 1 3 5 7 7 7 4 1 2 3 4 5 4
Wind_Direction
181 136 141 152 147 140 135 134 132 128 125 122 121 119 117 115 115 113 111 110 109 107 106 104 101 100 101 104 104 102 103 104 104 105 106 107 108 110 110 111 110 105 101 99 98 98 97 98 96 94 96 97 96 96 98 97 95 97 101 102 105 107 103 97 96 98 95 90 90 90 88 85 85 88 86 85 84 81 79 74 71 65 63 75 77
140 125 131 148 144 136 134 133 130 126 125 122 122 120 118 118 117 115 114 113 112 109 107 105 103 102 102 103 106 105 103 105 106 107 109 109 109 110 110 110 108 109 106 103 103 99 100 101 102 102 98 98 100 100 100 99 100 102 103 104 101 99 100 101 97 96 98 96 86 79 85 85 85 84 85 86 86 85 83 82 81 74 69 76 75
122 124 136 146 141 135 131 131 129 123 121 122 122 122 120 119 119 116 115 114 112 111 108 106 105 104 103 103 105 107 105 104 106 108 110 111 110 110 108 106 108 108 106 105 103 103 100 100 102 102 102 102 102 102 102 104 103 104 106 106 104 106 105 101 102 99 91 91 91 93 90 90 88 88 86 86 88 88 83 82 81 80 81 77 75
125 130 139 146 139 133 130 129 127 124 123 123 124 123 121 121 119 118 118 115 113 111 109 108 106 105 105 105 105 104 105 107 106 107 111 113 112 110 107 106 107 107 108 107 105 103 102 101 102 102 102 100 100 104 107 106 106 106 106 107 108 108 109 107 100 93 90 90 85 74 64 75 84 85 86 86 86 87 86 86 85 81 80 79 76
123 129 137 136 133 131 130 129 128 126 126 125 124 123 122 121 121 120 120 117 114 113 109 108 108 109 108 109 109 108 107 107 107 107 106 105 108 109 110 110 109 109 109 108 108 107 106 104 103 107 109 107 106 106 107 108 105 103 103 107 111 113 114 112 105 97 94 92 89 80 76 80 87 93 94 95 93 91 94 90 86 86 83 81 81
128 126 124 128 129 132 133 132 130 129 126 126 125 124 125 122 122 122 122 119 117 114 110 109 110 111 113 113 112 112 111 108 107 106 108 108 110 112 112 113 111 114 113 110 112 112 105 98 101 108 110 109 105 104 108 110 109 107 106 108 111 115 121 120 114 104 98 99 88 80 82 86 87 90 95 92 89 84 88 87 86 83 84 83 79
121 121 125 129 133 138 136 133 131 128 127 125 124 125 125 123 124 125 124 123 119 117 112 109 111 113 115 116 115 114 113 111 109 108 108 111 111 114 114 113 116 116 112 111 111 107 109 108 105 101 100 99 100 105 109 110 110 105 103 104 105 110 126 130 125 90 79 84 75 79 77 83 91 100 106 101 100 96 87 96 89 91 88 86 83
117 125 133 135 137 141 135 131 128 125 125 124 125 127 127 125 126 127 127 127 122 117 113 111 113 115 116 116 116 116 115 114 112 111 110 111 110 113 114 117 116 112 111 110 110 110 111 107 103 102 100 98 100 104 107 108 102 99 98 96 97 93 89 110 163 65 89 77 84 80 90 93 87 86 87 100 104 92 93 91 96 91 87 87 82
73 112 116 119 126 132 127 125 123 122 123 124 125 126 126 127 128 128 129 128 125 120 118 116 117 117 118 120 121 120 119 117 115 114 114 114 115 113 114 119 116 113 112 111 104 110 113 110 108 104 103 106 113 113 105 105 98 94 92 92 99 96 89 72 43 112 92 142 117 117 115 100 87 81 97 94 94 90 79 76 85 93 88 82 84
20 59 81 92 116 123 123 121 120 120 121 123 124 125 127 128 128 130 130 128 125 124 124 124 123 122 122 123 123 122 121 118 115 114 115 115 116 118 120 120 114 113 112 109 107 107 111 114 112 111 111 113 121 123 118 102 101 91 90 83 90 80 74 60 51 231 155 164 132 135 140 117 94 101 105 104 101 97 100 104 92 91 100 100 99
101 77 79 109 126 125 123 122 121 120 122 123 124 126 127 127 129 130 130 129 128 129 129 129 127 126 125 124 125 124 122 120 117 115 112 109 105 104 103 107 110 107 104 107 114 115 113 111 110 113 117 122 127 127 126 123 114 103 85 74 71 66 60 32 43 234 154 140 137 160 132 120 94 92 110 109 106 106 105 98 104 95 89 88 83
108 102 96 122 132 125 125 124 121 122 124 124 125 127 127 129 129 129 128 129 131 131 129 126 126 126 126 126 125 125 124 122 119 116 114 113 113 113 114 111 110 112 110 110 113 112 113 115 116 121 126 129 141 144 145 139 122 90 58 59 53 45 33 22 44 92 124 137 141 139 121 125 132 114 112 111 109 106 104 109 105 101 95 93 95
86 67 61 79 126 131 127 127 125 126 126 126 128 128 128 129 128 128 129 130 130 128 127 127 127 126 128 128 127 126 122 119 116 115 116 117 119 118 117 117 115 116 118 118 119 120 119 120 125 128 134 139 149 155 147 97 56 38 34 31 28 29 26 37 91 106 118 121 124 118 116 137 119 115 110 113 116 112 110 109 105 99 102 97 89
103 92 48 110 156 132 130 127 127 128 128 128 128 128 128 128 127 127 127 128 128 129 129 129 128 129 128 129 127 125 121 120 120 119 120 122 121 120 118 118 119 121 122 124 125 125 124 124 126 129 131 134 141 142 126 47 37 29 18 16 19 24 31 30 115 122 124 128 132 137 140 129 122 114 116 121 118 113 114 115 109 109 108 102 90
123 125 119 204 145 137 131 126 125 125 124 125 127 128 128 128 127 128 130 131 132 133 132 132 132 133 132 131 128 126 125 123 121 124 124 123 122 121 121 120 122 124 125 124 124 123 123 123 123 117 111 122 133 136 81 23 37 30 18 20 25 25 25 20 143 137 132 135 139 140 144 133 129 126 128 129 124 120 120 117 117 116 113 104 94
125 131 136 185 159 150 135 127 123 124 124 125 126 127 128 129 130 131 132 133 134 136 137 137 137 136 135 132 131 131 130 130 130 131 132 127 122 120 122 124 126 128 126 127 126 123 122 122 117 116 127 136 141 148 114 36 45 37 29 28 32 31 29 40 93 130 133 134 146 152 144 137 133 129 125 124 126 125 124 121 117 114 115 110 104
130 145 142 160 168 148 132 125 126 124 122 124 127 129 129 130 131 132 133 134 137 138 140 140 140 139 136 134 132 132 133 134 135 136 136 132 126 125 127 132 135 134 133 132 134 131 128 128 126 128 129 136 140 140 132 94 74 66 47 41 39 31 28 45 100 128 133 146 151 155 149 134 136 133 132 129 127 124 123 121 121 121 122 122 114
148 150 140 147 155 139 126 125 124 122 126 127 127 128 130 132 133 133 134 136 138 139 141 143 141 139 134 131 129 129 135 137 138 137 134 129 128 129 132 136 140 138 138 140 141 139 137 135 134 133 118 112 120 78 95 78 92 85 77 57 55 40 27 71 134 139 138 151 149 151 143 147 142 140 135 135 138 138 132 129 127 125 124 118 106
156 143 136 148 143 132 123 120 123 125 123 125 128 132 133 134 134 134 135 137 138 142 143 142 141 137 136 135 134 130 137 139 138 132 124 128 133 131 134 135 142 142 144 146 145 144 144 143 143 133 118 105 11 24 50 29 31 61 68 66 65 54 36 80 132 141 143 134 158 149 163 151 143 143 142 142 146 142 135 134 127 129 126 122 118
161 144 136 139 137 126 123 124 126 127 127 127 129 134 138 136 136 135 135 138 144 145 148 146 142 138 136 136 137 134 133 135 136 129 131 131 131 133 138 143 147 149 148 151 151 149 150 151 142 129 116 105 10 352 343 354 7 5 24 55 72 77 50 85 127 121 120 150 162 168 158 147 149 150 147 147 148 143 136 133 134 133 126 122 124
161 140 130 136 138 134 133 128 129 127 124 123 125 132 139 136 133 134 137 141 147 153 152 148 141 141 138 131 117 105 107 111 112 117 130 109 132 143 143 147 151 152 154 158 158 158 155 153 143 141 132 98 41 329 332 334 340 351 4 32 73 77 89 104 113 113 133 152 162 179 154 152 155 154 150 150 151 147 140 144 143 141 132 126 126
158 138 131 141 143 141 138 133 129 128 129 130 137 142 140 135 135 139 143 152 156 155 148 148 147 130 131 120 112 108 90 95 127 126 118 134 133 150 148 151 152 156 156 159 160 161 159 158 154 152 146 128 170 339 332 336 337 338 344 20 74 71 77 126 129 133 139 157 174 181 157 158 158 156 155 154 153 148 151 149 148 143 141 139 134
136 132 139 150 148 139 136 132 132 134 132 136 139 139 130 133 135 142 155 163 165 152 155 154 118 116 104 109 107 109 103 90 102 121 131 132 123 141 156 157 150 157 157 155 154 162 165 153 160 156 146 169 260 314 322 325 321 326 345 22 87 68 80 129 133 140 152 163 177 173 162 161 159 159 157 157 155 154 156 155 150 146 144 140 141
147 148 147 148 144 138 139 136 140 145 140 142 133 132 140 141 147 153 170 176 158 140 138 131 103 107 118 114 114 107 99 116 154 158 147 108 110 109 154 158 156 154 155 151 160 160 173 170 158 170 183 216 248 299 316 316 314 308 308 330 92 260 118 142 142 143 150 164 171 170 166 163 160 159 159 162 159 164 165 162 158 151 147 147 148
143 131 135 146 145 139 144 146 149 149 146 145 141 144 144 138 147 161 178 178 128 106 127 111 103 101 108 108 115 113 121 103 67 75 102 109 94 93 104 110 104 129 126 122 142 157 156 162 158 170 195 212 235 272 293 296 296 303 301 297 87 259 120 134 135 139 155 159 170 169 170 164 160 160 164 166 166 174 171 166 165 156 154 150 149
132 137 145 143 150 151 151 146 147 150 148 142 145 150 146 148 152 172 189 176 139 136 136 105 85 88 90 110 109 115 121 119 103 115 103 100 99 101 111 136 140 143 132 142 154 155 170 182 188 207 210 210 222 239 246 255 282 298 293 285 98 203 121 138 139 145 158 159 171 169 170 162 164 166 165 168 173 178 179 172 170 165 166 156 156
144 143 139 144 151 155 148 146 146 136 138 145 146 143 159 158 160 177 181 189 150 138 158 107 79 86 92 99 111 119 125 132 137 129 131 119 120 134 154 159 147 157 163 159 175 170 171 186 203 225 226 215 233 246 259 271 262 270 280 276 116 181 135 141 147 149 157 163 172 171 168 166 168 169 170 172 179 180 186 180 177 175 168 172 167
137 149 155 159 158 149 147 148 142 140 143 152 152 153 159 155 168 178 188 191 151 142 138 96 92 90 113 105 115 121 135 141 150 147 149 131 138 149 151 144 175 176 180 173 171 167 175 192 201 228 227 228 227 233 243 251 260 245 251 255 183 164 151 153 155 154 152 165 176 173 173 174 171 174 174 177 179 178 191 187 186 183 179 178 179
138 149 167 155 154 146 143 142 146 148 152 153 155 156 151 150 166 173 180 194 149 131 132 128 122 130 121 136 128 132 140 149 161 173 144 118 117 136 164 192 190 188 177 170 157 165 179 191 202 213 217 223 225 244 243 249 253 242 221 229 162 173 152 154 159 155 155 168 175 182 180 175 172 175 177 179 180 177 188 194 196 191 188 188 181
98 110 131 146 145 149 149 149 152 159 156 154 158 151 156 157 165 171 181 173 168 128 132 139 153 152 142 150 143 147 160 164 164 175 159 135 125 130 152 183 192 184 171 154 146 152 175 187 195 203 211 216 233 249 251 263 244 224 211 208 144 172 160 158 166 162 161 166 181 192 182 175 175 178 179 183 182 179 186 188 197 199 194 195 187
111 80 32 337 188 155 152 156 159 159 158 164 160 151 152 159 163 159 155 161 181 145 127 127 134 166 172 171 155 157 162 165 165 174 177 146 141 150 181 198 182 107 99 144 171 166 165 177 191 205 199 204 231 240 235 253 252 211 213 204 144 167 159 167 170 161 164 171 179 191 186 181 183 183 182 188 184 183 185 188 193 200 201 202 194
137 127 117 262 260 167 156 165 162 161 166 162 151 148 160 163 157 152 158 174 163 139 139 137 148 175 188 189 170 163 143 140 149 165 165 153 165 189 198 160 90 94 131 158 154 123 140 187 283 263 215 229 268 272 246 224 224 216 227 216 99 159 160 170 177 169 168 168 174 187 189 188 190 188 187 189 189 176 187 188 191 197 203 205 201
256 126 150 178 230 169 156 163 162 169 163 155 156 158 158 154 154 161 167 170 155 144 158 155 143 172 180 174 168 146 120 122 103 122 142 160 196 203 136 68 77 85 105 132 142 117 66 39 315 307 306 301 300 284 294 200 188 17 40 37 72 125 143 126 85 308 190 173 174 177 185 186 191 196 195 192 191 179 185 190 194 195 199 203 206
176 98 147 196 199 158 146 152 162 165 147 149 149 153 159 157 162 162 168 160 161 159 168 148 148 167 176 163 148 139 127 128 113 105 140 180 200 126 73 70 59 82 112 125 95 67 42 42 290 279 269 266 280 291 352 42 65 75 78 98 77 75 100 118 155 172 165 238 191 173 182 182 184 190 205 200 194 187 183 191 194 193 196 200 204
150 124 150 166 159 147 144 149 149 146 148 152 153 157 163 161 156 162 154 144 111 90 84 109 144 166 147 135 135 136 133 136 132 135 179 191 184 95 83 106 105 83 77 77 118 125 67 355 296 256 308 262 151 355 86 69 76 61 46 53 80 77 90 85 109 162 173 169 168 176 181 189 181 190 202 204 200 196 190 195 198 194 202 202 204
149 137 124 149 139 141 143 141 138 142 153 153 154 159 164 159 153 137 122 118 109 101 114 153 167 125 123 137 148 133 139 144 149 173 182 190 166 121 143 149 111 97 97 100 87 88 81 26 16 180 116 85 105 59 44 87 77 85 70 83 86 86 83 86 70 82 156 156 164 169 171 176 203 212 198 198 199 204 198 199 203 198 194 203 206
146 130 138 141 131 137 137 137 138 140 142 144 147 149 145 140 138 116 130 114 113 112 128 171 137 126 141 152 155 152 151 158 164 188 185 190 144 138 149 138 140 141 157 164 142 129 131 99 316 294 176 137 114 95 63 72 71 54 70 61 35 48 61 78 73 48 99 148 156 162 173 181 186 219 226 210 205 208 205 202 205 206 194 201 207
135 130 145 138 139 140 139 133 132 136 138 140 142 138 139 132 117 120 109 95 92 117 154 162 129 146 165 182 170 148 174 176 172 187 201 182 145 153 134 141 153 153 144 133 146 162 138 142 198 244 183 132 118 123 108 82 85 67 58 80 86 61 61 44 49 37 65 127 160 171 189 195 189 193 194 200 224 226 218 209 209 213 208 202 207
136 132 141 128 129 135 133 127 124 126 125 125 126 114 112 107 104 109 99 72 47 34 43 54 56 143 216 230 127 109 165 203 221 195 185 172 121 125 138 147 145 129 109 118 134 119 145 168 188 190 39 47 125 143 134 124 100 97 78 56 104 95 46 53 54 53 21 31 141 181 187 199 198 193 187 185 191 207 223 217 212 217 222 216 214
134 133 133 129 128 128 125 119 122 126 123 122 121 109 102 111 103 96 88 84 79 74 50 65 78 86 96 201 214 147 158 184 220 235 320 60 97 115 133 155 157 139 130 124 142 143 146 147 63 54 69 59 59 70 87 103 81 68 60 23 12 39 65 45 60 55 78 19 13 35 140 196 192 192 191 192 186 193 195 195 199 207 209 224 220
140 133 130 132 135 138 133 131 131 131 132 136 133 131 123 110 92 98 107 108 103 94 86 90 78 93 116 180 230 180 166 176 189 185 169 207 128 139 127 142 140 142 135 145 159 149 114 109 124 121 118 102 46 38 11 93 107 25 16 27 352 49 51 87 80 48 26 107 71 31 350 22 179 182 191 183 187 194 197 199 197 195 205 208 214
155 138 136 139 135 134 137 132 128 139 144 150 145 128 136 142 136 136 122 117 111 103 95 72 84 79 87 103 78 20 39 185 184 159 170 139 139 147 163 157 136 136 146 165 164 128 122 112 124 80 46 129 106 119 336 64 32 144 100 328 349 336 357 41 44 354 280 107 113 115 251 9 248 172 175 189 201 196 196 198 195 197 207 211 205
151 146 140 133 135 135 138 135 146 154 158 151 136 138 115 120 121 139 129 96 47 99 109 110 78 66 37 40 39 51 74 38 27 105 153 165 147 156 162 153 133 130 131 142 142 129 118 124 118 128 94 44 86 50 55 69 157 98 134 80 338 4 332 7 355 20 26 34 90 106 111 116 106 21 25 208 208 195 193 194 196 199 203 207 206
149 144 142 139 139 139 147 147 160 164 157 144 116 93 99 92 99 117 92 100 127 96 74 56 53 56 41 23 31 53 52 59 61 70 94 113 150 151 152 151 130 122 125 122 109 122 134 129 112 108 118 78 45 352 21 78 118 113 95 166 274 98 353 304 303 296 15 356 76 97 123 119 110 119 67 296 258 225 227 207 209 205 203 202 200
157 153 152 147 147 151 159 160 158 159 153 126 117 115 104 94 94 82 91 84 66 69 79 49 38 70 62 41 27 41 47 53 44 43 59 67 77 114 92 57 73 85 98 103 99 108 120 130 130 128 130 139 121 105 12 52 60 54 137 84 38 16 223 251 51 305 2 359 354 32 94 94 102 133 187 194 233 233 229 229 231 226 228 223 214
158 159 153 149 143 152 159 152 129 133 135 138 136 130 128 129 124 117 112 108 105 109 126 136 103 93 109 295 31 49 58 56 45 45 48 59 62 72 85 90 93 88 88 96 97 95 110 117 131 121 105 114 132 115 115 53 75 45 50 100 179 190 209 256 85 271 327 242 322 331 333 318 143 152 234 165 175 217 230 245 245 243 243 240 230
163 154 151 152 149 151 163 150 146 146 143 151 141 128 126 132 134 136 136 138 137 164 145 139 131 141 118 85 50 28 51 72 45 54 54 55 61 61 65 70 82 77 70 72 65 68 87 107 123 115 130 125 122 105 118 81 29 34 16 342 334 322 169 115 230 102 31 323 353 331 318 349 346 330 234 226 204 192 206 210 227 240 244 237 233
157 158 157 157 158 161 162 152 152 150 159 154 140 138 132 131 126 128 135 139 146 155 152 153 138 137 98 68 41 34 42 66 71 52 64 66 72 71 73 70 71 64 66 65 71 63 67 66 82 95 92 78 119 127 125 170 143 113 251 253 288 5 348 96 140 156 164 145 329 321 300 304 293 255 263 275 276 256 241 235 209 213 213 220 228
161 164 163 165 163 163 160 148 151 155 164 155 140 138 135 137 134 135 131 143 144 149 148 137 124 107 103 73 69 47 40 38 55 74 65 75 74 84 80 79 77 73 79 76 70 71 72 69 58 52 57 61 73 111 118 161 130 147 141 257 326 345 20 40 81 69 109 96 325 3 325 322 330 284 280 248 241 245 267 283 291 286 283 256 222
159 159 159 161 165 164 160 153 157 162 161 159 144 139 134 133 135 143 142 147 144 141 136 132 125 128 122 107 85 72 56 48 36 41 64 67 79 84 87 88 89 84 79 86 84 75 71 74 77 84 84 77 64 76 89 69 59 73 107 106 57 329 11 25 14 32 54 77 136 47 311 346 355 299 340 340 315 292 271 264 284 281 259 243 250
140 148 158 167 168 168 165 165 163 159 161 163 153 149 146 143 142 149 145 151 157 150 137 132 130 126 129 121 109 97 77 74 57 45 51 59 67 76 90 89 80 77 78 76 80 88 85 89 89 80 76 86 80 79 70 64 77 71 67 85 110 104 87 80 46 32 84 75 59 5 313 327 276 329 328 348 4 3 347 16 358 322 307 306 308